Location: Chrome
(40.5765°N, 74.2163°W)
Time: 18:56:18
(UTC+00:00)

Cosmos 1500 - Pass Details

Date: 06 December 2019
Orbit: 499 x 520 km, 82.5° (Epoch: 26 January)

Event Time Altitude Azimuth Distance (km) Brightness Sun altitude
Rises 22:05:38 0° 4° (N) 2,621 6.5 -6.9°
Reaches altitude 10° 22:08:01 10° 17° (NNE) 1,727 5.5 -7.3°
Maximum altitude 22:11:15 26° 76° (ENE) 1,015 4.1 -7.9°
Drops below altitude 10° 22:14:26 10° 135° (SE) 1,706 5.6 -8.5°
Sets 22:16:47 0° 148° (SSE) 2,582 6.6 -8.9°
